Wind From: 11-12-2017 04:25 Until: 16:00 warning for: Wind Level: Orange info button

Power and phone distribution networks may be disrupted for relatively long periods., Roofs and chimneys can be damaged. , Tree branches may break. , Vehicles can be deported. , Traffic may be disrupted, particularly on secondary roads in forest areas. Limit your trips. , Limit your speed in highway driving, especially if you drive a vehicle or hitch sensitive to wind. , Do not go for walks in forests or along the coast., In town, be vigilant against possible falling objects., Do not work on roofs and do not touch any electrical line fallen on the ground., Store or secure sensitive objects to wind or likely to be damaged., Always install power generators outside buildings. 


Meteo18 Weather Cam more information Meteo18 Weather Cam


Thunder radar more information blitzortung!


Rain radar more information rain snow radar


Visit our other weather sites:

Template documentation
and downloads

And another site



Weather Underground History page Text

Daily Summary for February 23, 2017 Units:  Metric    English   Both
« Previous Day
Next Day »
Daily Weekly Monthly Yearly Custom
  High: Low: Average:
Temperature: 9.2 °C 6.7 °C 7.9 °C
Dew Point: 8.1 °C 4.4 °C 6.1 °C
Humidity: 95 % 80 % 89 %
Wind Speed: 37.0 km/h 1.6 km/h 13 km/h
Wind Gust: 48.3 km/h - -
Wind:- - WSW
Pressure: 1017.8 hPa 1009.4 hPa -
Precipitation: 4.3 mm    
Historical Graphs
 
 
Tabular Data for February 23, 2017
Time Temperature Dew Point Pressure Wind Wind Speed Wind Gust Humidity Rainfall Rate (Hourly)
00:02 8.4 °C 6.5 °C 1017.8 hPa WSW 4.8 km/h 20.9 km/h 88 % 0.0 mm
00:12 8.3 °C 6.3 °C 1017.8 hPa WSW 19.3 km/h 20.9 km/h 87 % 0.0 mm
00:17 8.3 °C 6.3 °C 1017.8 hPa SSW 1.6 km/h 16.1 km/h 87 % 0.0 mm
00:22 8.3 °C 6.4 °C 1017.8 hPa SW 11.3 km/h 19.3 km/h 88 % 0.0 mm
00:27 8.3 °C 6.4 °C 1017.8 hPa SSW 4.8 km/h 19.3 km/h 88 % 0.0 mm
00:32 8.2 °C 6.3 °C 1017.8 hPa SSW 3.2 km/h 16.1 km/h 88 % 0.0 mm
00:37 8.2 °C 6.3 °C 1017.8 hPa West 8.0 km/h 16.1 km/h 88 % 0.0 mm
00:42 8.2 °C 6.2 °C 1017.8 hPa SSW 3.2 km/h 19.3 km/h 87 % 0.0 mm
00:47 8.2 °C 6.2 °C 1017.5 hPa WSW 12.9 km/h 19.3 km/h 87 % 0.0 mm
00:52 8.3 °C 6.3 °C 1017.5 hPa South 6.4 km/h 19.3 km/h 87 % 0.0 mm
00:57 8.2 °C 6.2 °C 1017.8 hPa SSW 4.8 km/h 20.9 km/h 87 % 0.0 mm
01:02 8.2 °C 6.3 °C 1017.8 hPa SSW 1.6 km/h 20.9 km/h 88 % 0.0 mm
01:07 8.1 °C 6.2 °C 1017.5 hPa SW 6.4 km/h 9.7 km/h 88 % 0.0 mm
01:12 8.1 °C 6.2 °C 1017.5 hPa SW 9.7 km/h 9.7 km/h 88 % 0.0 mm
01:17 8.1 °C 6.2 °C 1017.5 hPa South 3.2 km/h 17.7 km/h 88 % 0.0 mm
01:22 8.1 °C 6.2 °C 1017.5 hPa SW 6.4 km/h 17.7 km/h 88 % 0.0 mm
01:32 8.1 °C 6.1 °C 1017.5 hPa WSW 4.8 km/h 16.1 km/h 87 % 0.0 mm
01:42 8.1 °C 6.1 °C 1017.5 hPa SSE 6.4 km/h 16.1 km/h 87 % 0.0 mm
01:47 8.1 °C 6.2 °C 1017.2 hPa SW 9.7 km/h 14.5 km/h 88 % 0.0 mm
01:52 8.1 °C 6.2 °C 1017.2 hPa South 3.2 km/h 14.5 km/h 88 % 0.0 mm
01:57 8.0 °C 6.1 °C 1017.2 hPa SW 8.0 km/h 14.5 km/h 88 % 0.0 mm
02:02 7.9 °C 6.0 °C 1017.2 hPa SW 8.0 km/h 14.5 km/h 88 % 0.0 mm
02:07 7.9 °C 6.0 °C 1017.2 hPa SW 12.9 km/h 14.5 km/h 88 % 0.0 mm
02:12 7.9 °C 5.9 °C 1017.2 hPa SW 4.8 km/h 14.5 km/h 87 % 0.0 mm
02:17 7.9 °C 6.0 °C 1016.8 hPa SE 11.3 km/h 20.9 km/h 88 % 0.0 mm
02:22 7.8 °C 5.9 °C 1017.2 hPa WSW 6.4 km/h 20.9 km/h 88 % 0.0 mm
02:27 7.8 °C 5.9 °C 1017.2 hPa West 12.9 km/h 20.9 km/h 88 % 0.0 mm
02:32 7.8 °C 5.8 °C 1017.2 hPa WSW 11.3 km/h 20.9 km/h 87 % 0.0 mm
02:37 7.7 °C 5.8 °C 1017.2 hPa SW 4.8 km/h 17.7 km/h 88 % 0.0 mm
02:42 7.7 °C 5.8 °C 1016.8 hPa WSW 6.4 km/h 17.7 km/h 88 % 0.0 mm
02:47 7.7 °C 5.8 °C 1016.8 hPa SW 6.4 km/h 14.5 km/h 88 % 0.0 mm
02:52 7.6 °C 5.9 °C 1016.5 hPa SSW 6.4 km/h 14.5 km/h 89 % 0.0 mm
02:57 7.6 °C 5.9 °C 1016.5 hPa SW 4.8 km/h 14.5 km/h 89 % 0.0 mm
03:02 7.5 °C 5.8 °C 1016.5 hPa West 9.7 km/h 14.5 km/h 89 % 0.0 mm
03:07 7.5 °C 5.8 °C 1016.5 hPa SW 6.4 km/h 11.3 km/h 89 % 0.0 mm
03:12 7.4 °C 5.7 °C 1016.1 hPa SSW 6.4 km/h 11.3 km/h 89 % 0.0 mm
03:17 7.3 °C 5.8 °C 1016.1 hPa SSW 6.4 km/h 12.9 km/h 90 % 0.0 mm
03:22 7.3 °C 5.8 °C 1016.1 hPa SW 9.7 km/h 12.9 km/h 90 % 0.0 mm
03:27 7.2 °C 5.7 °C 1016.1 hPa SSW 11.3 km/h 14.5 km/h 90 % 0.0 mm
03:32 7.2 °C 5.7 °C 1016.1 hPa SSW 6.4 km/h 14.5 km/h 90 % 0.0 mm
03:42 7.1 °C 5.6 °C 1015.8 hPa SSW 8.0 km/h 16.1 km/h 90 % 0.0 mm
03:52 7.1 °C 5.6 °C 1015.5 hPa SSW 6.4 km/h 17.7 km/h 90 % 0.0 mm
03:57 7.1 °C 5.6 °C 1015.5 hPa SSW 11.3 km/h 17.7 km/h 90 % 0.0 mm
04:02 7.0 °C 5.6 °C 1015.5 hPa SW 11.3 km/h 17.7 km/h 91 % 0.0 mm
04:07 7.0 °C 5.6 °C 1015.5 hPa SW 11.3 km/h 17.7 km/h 91 % 0.0 mm
04:12 7.0 °C 5.6 °C 1015.1 hPa South 6.4 km/h 17.7 km/h 91 % 0.0 mm
04:17 7.0 °C 5.5 °C 1015.1 hPa SSW 8.0 km/h 17.7 km/h 90 % 0.0 mm
04:22 7.0 °C 5.5 °C 1015.1 hPa SSW 9.7 km/h 17.7 km/h 90 % 0.0 mm
04:32 7.1 °C 5.4 °C 1015.1 hPa SSW 6.4 km/h 17.7 km/h 89 % 0.0 mm
04:37 7.1 °C 5.4 °C 1014.8 hPa WSW 11.3 km/h 20.9 km/h 89 % 0.0 mm
04:42 7.1 °C 5.4 °C 1014.8 hPa SW 14.5 km/h 20.9 km/h 89 % 0.0 mm
04:47 7.0 °C 5.3 °C 1014.8 hPa WSW 12.9 km/h 22.5 km/h 89 % 0.0 mm
04:52 6.9 °C 5.2 °C 1014.4 hPa SW 12.9 km/h 22.5 km/h 89 % 0.0 mm
05:02 6.9 °C 5.4 °C 1014.4 hPa SSW 16.1 km/h 22.5 km/h 90 % 0.0 mm
05:07 6.9 °C 5.4 °C 1014.4 hPa SW 16.1 km/h 22.5 km/h 90 % 0.0 mm
05:12 6.8 °C 5.3 °C 1014.4 hPa SSW 9.7 km/h 22.5 km/h 90 % 0.0 mm
05:17 6.8 °C 5.3 °C 1014.4 hPa SW 16.1 km/h 25.7 km/h 90 % 0.0 mm
05:22 6.8 °C 5.3 °C 1014.4 hPa SW 8.0 km/h 25.7 km/h 90 % 0.0 mm
05:32 6.8 °C 5.3 °C 1014.1 hPa SW 12.9 km/h 19.3 km/h 90 % 0.0 mm
05:42 6.8 °C 5.3 °C 1014.1 hPa SW 16.1 km/h 29.0 km/h 90 % 0.0 mm
05:52 6.8 °C 5.3 °C 1014.1 hPa SSW 8.0 km/h 29.0 km/h 90 % 0.0 mm
06:02 6.8 °C 5.3 °C 1013.8 hPa SW 12.9 km/h 24.1 km/h 90 % 0.0 mm
06:12 6.8 °C 5.3 °C 1013.8 hPa SW 16.1 km/h 19.3 km/h 90 % 0.0 mm
06:17 6.8 °C 5.3 °C 1013.8 hPa WSW 8.0 km/h 19.3 km/h 90 % 0.0 mm
06:22 6.8 °C 5.3 °C 1013.8 hPa SW 9.7 km/h 19.3 km/h 90 % 0.0 mm
06:27 6.7 °C 5.2 °C 1013.8 hPa SW 11.3 km/h 20.9 km/h 90 % 0.0 mm
06:32 6.7 °C 5.2 °C 1013.4 hPa SSW 9.7 km/h 20.9 km/h 90 % 0.0 mm
06:42 6.7 °C 5.3 °C 1013.4 hPa WSW 9.7 km/h 17.7 km/h 91 % 0.0 mm
06:47 6.7 °C 5.2 °C 1013.1 hPa SW 19.3 km/h 20.9 km/h 90 % 0.0 mm
06:52 6.7 °C 5.2 °C 1013.1 hPa SW 12.9 km/h 20.9 km/h 90 % 0.0 mm
06:57 6.7 °C 5.2 °C 1013.1 hPa SW 12.9 km/h 20.9 km/h 90 % 0.0 mm
07:02 6.7 °C 5.3 °C 1013.1 hPa SSW 6.4 km/h 20.9 km/h 91 % 0.0 mm
07:12 6.7 °C 5.3 °C 1013.1 hPa SW 17.7 km/h 19.3 km/h 91 % 0.0 mm
07:17 6.7 °C 5.2 °C 1013.1 hPa SW 12.9 km/h 19.3 km/h 90 % 0.0 mm
07:22 6.7 °C 5.2 °C 1013.1 hPa SW 11.3 km/h 24.1 km/h 90 % 0.0 mm
07:27 6.7 °C 5.2 °C 1013.1 hPa WSW 19.3 km/h 24.1 km/h 90 % 0.0 mm
07:32 6.7 °C 5.0 °C 1012.8 hPa SSW 12.9 km/h 24.1 km/h 89 % 0.0 mm
07:37 6.7 °C 5.0 °C 1012.8 hPa WSW 12.9 km/h 24.1 km/h 89 % 0.0 mm
07:42 6.7 °C 5.0 °C 1013.1 hPa WSW 9.7 km/h 22.5 km/h 89 % 0.0 mm
07:47 6.7 °C 5.2 °C 1012.8 hPa SSW 14.5 km/h 22.5 km/h 90 % 0.0 mm
07:52 6.7 °C 5.2 °C 1012.8 hPa WSW 20.9 km/h 24.1 km/h 90 % 0.0 mm
07:57 6.7 °C 5.2 °C 1012.8 hPa SSW 9.7 km/h 24.1 km/h 90 % 0.0 mm
08:02 6.7 °C 5.2 °C 1012.8 hPa SSW 14.5 km/h 24.1 km/h 90 % 0.0 mm
08:07 6.7 °C 5.0 °C 1012.8 hPa WSW 8.0 km/h 24.1 km/h 89 % 0.0 mm
08:12 6.7 °C 5.0 °C 1012.8 hPa SW 9.7 km/h 24.1 km/h 89 % 0.0 mm
08:17 6.7 °C 5.0 °C 1012.8 hPa SW 14.5 km/h 24.1 km/h 89 % 0.0 mm
08:22 6.7 °C 5.0 °C 1012.8 hPa SW 14.5 km/h 24.1 km/h 89 % 0.0 mm
08:27 6.7 °C 4.9 °C 1012.8 hPa SW 14.5 km/h 24.1 km/h 88 % 0.0 mm
08:32 6.8 °C 5.0 °C 1012.8 hPa SSW 16.1 km/h 24.1 km/h 88 % 0.0 mm
08:37 6.8 °C 5.0 °C 1012.8 hPa SW 8.0 km/h 24.1 km/h 88 % 0.0 mm
08:42 6.8 °C 5.0 °C 1012.8 hPa WSW 11.3 km/h 25.7 km/h 88 % 0.0 mm
08:47 6.9 °C 5.1 °C 1012.8 hPa WSW 6.4 km/h 25.7 km/h 88 % 0.0 mm
08:52 6.9 °C 5.1 °C 1012.8 hPa SSW 16.1 km/h 25.7 km/h 88 % 0.0 mm
08:57 6.9 °C 5.1 °C 1012.8 hPa SW 20.9 km/h 25.7 km/h 88 % 0.0 mm
09:02 6.9 °C 5.1 °C 1012.4 hPa WSW 8.0 km/h 22.5 km/h 88 % 0.0 mm
09:07 6.9 °C 5.1 °C 1012.4 hPa SW 8.0 km/h 22.5 km/h 88 % 0.0 mm
09:12 6.9 °C 5.1 °C 1012.4 hPa SW 12.9 km/h 24.1 km/h 88 % 0.0 mm
09:17 7.0 °C 5.3 °C 1012.4 hPa WSW 8.0 km/h 24.1 km/h 89 % 0.0 mm
09:22 7.0 °C 5.1 °C 1012.4 hPa SW 25.7 km/h 25.7 km/h 88 % 0.0 mm
09:32 7.0 °C 5.1 °C 1012.4 hPa WSW 11.3 km/h 27.4 km/h 88 % 0.0 mm
09:42 7.0 °C 5.1 °C 1012.4 hPa West 3.2 km/h 27.4 km/h 88 % 0.0 mm
09:47 6.9 °C 4.9 °C 1012.4 hPa SW 20.9 km/h 27.4 km/h 87 % 0.0 mm
09:52 6.9 °C 4.9 °C 1012.1 hPa WSW 19.3 km/h 27.4 km/h 87 % 0.0 mm
09:57 6.9 °C 4.9 °C 1012.1 hPa WSW 11.3 km/h 27.4 km/h 87 % 0.0 mm
10:02 7.1 °C 5.1 °C 1012.1 hPa SW 17.7 km/h 29.0 km/h 87 % 0.0 mm
10:07 7.1 °C 5.1 °C 1012.1 hPa SW 25.7 km/h 29.0 km/h 87 % 0.0 mm
10:12 7.2 °C 5.0 °C 1012.1 hPa SSW 14.5 km/h 29.0 km/h 86 % 0.0 mm
10:17 7.2 °C 5.0 °C 1012.1 hPa SW 17.7 km/h 29.0 km/h 86 % 0.0 mm
10:22 7.2 °C 5.0 °C 1012.1 hPa SW 19.3 km/h 30.6 km/h 86 % 0.0 mm
10:27 7.2 °C 4.8 °C 1012.1 hPa WSW 12.9 km/h 30.6 km/h 85 % 0.0 mm
10:32 7.3 °C 5.1 °C 1012.1 hPa WSW 19.3 km/h 38.6 km/h 86 % 0.0 mm
10:37 7.4 °C 5.0 °C 1012.1 hPa SW 3.2 km/h 38.6 km/h 85 % 0.0 mm
10:42 7.5 °C 5.3 °C 1012.1 hPa WSW 16.1 km/h 38.6 km/h 86 % 0.0 mm
10:47 7.6 °C 5.2 °C 1011.7 hPa SSW 11.3 km/h 38.6 km/h 85 % 0.0 mm
10:52 7.7 °C 5.2 °C 1011.7 hPa SW 22.5 km/h 32.2 km/h 84 % 0.0 mm
10:57 7.8 °C 5.4 °C 1011.7 hPa WSW 12.9 km/h 32.2 km/h 85 % 0.0 mm
11:02 7.8 °C 5.3 °C 1011.7 hPa West 25.7 km/h 33.8 km/h 84 % 0.0 mm
11:07 7.7 °C 5.3 °C 1011.7 hPa SW 20.9 km/h 33.8 km/h 85 % 0.0 mm
11:12 7.8 °C 5.4 °C 1011.7 hPa SW 20.9 km/h 35.4 km/h 85 % 0.0 mm
11:17 7.8 °C 5.4 °C 1011.7 hPa West 8.0 km/h 35.4 km/h 85 % 0.0 mm
11:22 7.7 °C 5.2 °C 1011.7 hPa West 20.9 km/h 35.4 km/h 84 % 0.0 mm
11:27 7.7 °C 5.0 °C 1011.7 hPa West 12.9 km/h 35.4 km/h 83 % 0.0 mm
11:37 7.8 °C 5.3 °C 1012.1 hPa West 25.7 km/h 37.0 km/h 84 % 0.0 mm
11:42 7.8 °C 5.3 °C 1012.1 hPa West 33.8 km/h 37.0 km/h 84 % 0.0 mm
11:47 7.7 °C 5.2 °C 1012.1 hPa West 11.3 km/h 37.0 km/h 84 % 0.0 mm
11:52 7.6 °C 5.1 °C 1012.1 hPa WSW 12.9 km/h 37.0 km/h 84 % 0.0 mm
11:57 7.6 °C 5.2 °C 1012.1 hPa West 16.1 km/h 33.8 km/h 85 % 0.0 mm
12:02 7.7 °C 5.3 °C 1012.1 hPa WSW 16.1 km/h 33.8 km/h 85 % 0.0 mm
12:07 7.7 °C 5.3 °C 1012.1 hPa SW 17.7 km/h 32.2 km/h 85 % 0.0 mm
12:12 7.7 °C 5.3 °C 1012.1 hPa SW 12.9 km/h 32.2 km/h 85 % 0.0 mm
12:17 7.8 °C 5.4 °C 1011.7 hPa SW 8.0 km/h 32.2 km/h 85 % 0.0 mm
12:22 7.8 °C 5.4 °C 1011.7 hPa South 8.0 km/h 38.6 km/h 85 % 0.0 mm
12:27 7.9 °C 5.5 °C 1011.7 hPa SW 29.0 km/h 38.6 km/h 85 % 0.0 mm
12:32 7.9 °C 5.4 °C 1011.4 hPa SW 37.0 km/h 38.6 km/h 84 % 0.0 mm
12:37 8.0 °C 5.5 °C 1011.7 hPa WSW 16.1 km/h 38.6 km/h 84 % 0.0 mm
12:42 8.1 °C 5.7 °C 1011.7 hPa WSW 12.9 km/h 41.8 km/h 85 % 0.0 mm
12:52 8.1 °C 5.7 °C 1011.7 hPa WSW 17.7 km/h 37.0 km/h 85 % 0.0 mm
12:57 8.1 °C 5.7 °C 1011.7 hPa West 20.9 km/h 38.6 km/h 85 % 0.0 mm
13:02 8.1 °C 5.7 °C 1011.4 hPa SW 16.1 km/h 38.6 km/h 85 % 0.0 mm
13:07 8.2 °C 5.8 °C 1011.4 hPa West 25.7 km/h 37.0 km/h 85 % 0.0 mm
13:12 8.2 °C 5.8 °C 1011.4 hPa WSW 22.5 km/h 37.0 km/h 85 % 0.0 mm
13:17 8.2 °C 5.8 °C 1011.4 hPa WSW 25.7 km/h 35.4 km/h 85 % 0.0 mm
13:22 8.2 °C 5.8 °C 1011.4 hPa SW 12.9 km/h 35.4 km/h 85 % 0.0 mm
13:32 8.3 °C 6.1 °C 1011.1 hPa SSW 17.7 km/h 35.4 km/h 86 % 0.0 mm
13:37 8.3 °C 6.1 °C 1011.1 hPa SSW 27.4 km/h 33.8 km/h 86 % 0.0 mm
13:42 8.4 °C 6.2 °C 1010.7 hPa WSW 16.1 km/h 33.8 km/h 86 % 0.0 mm
13:47 8.5 °C 6.3 °C 1010.7 hPa WSW 16.1 km/h 35.4 km/h 86 % 0.0 mm
13:52 8.6 °C 6.2 °C 1010.7 hPa WSW 24.1 km/h 35.4 km/h 85 % 0.0 mm
13:57 8.7 °C 6.3 °C 1010.7 hPa SW 19.3 km/h 32.2 km/h 85 % 0.0 mm
14:02 8.7 °C 6.3 °C 1010.4 hPa SSW 6.4 km/h 32.2 km/h 85 % 0.0 mm
14:07 8.7 °C 6.3 °C 1010.4 hPa WSW 24.1 km/h 33.8 km/h 85 % 0.0 mm
14:12 8.7 °C 6.3 °C 1010.4 hPa WSW 14.5 km/h 33.8 km/h 85 % 0.0 mm
14:17 8.7 °C 6.5 °C 1010.4 hPa West 14.5 km/h 35.4 km/h 86 % 0.0 mm
14:22 8.7 °C 6.3 °C 1010.4 hPa West 16.1 km/h 35.4 km/h 85 % 0.0 mm
14:32 8.8 °C 6.6 °C 1010.4 hPa West 14.5 km/h 35.4 km/h 86 % 0.0 mm
14:42 8.8 °C 6.6 °C 1010.4 hPa West 19.3 km/h 33.8 km/h 86 % 0.0 mm
14:47 8.8 °C 6.6 °C 1010.0 hPa WSW 20.9 km/h 32.2 km/h 86 % 0.0 mm
14:52 8.9 °C 6.5 °C 1010.0 hPa SW 16.1 km/h 32.2 km/h 85 % 0.0 mm
14:57 9.0 °C 6.6 °C 1010.0 hPa WSW 20.9 km/h 32.2 km/h 85 % 0.0 mm
15:02 9.1 °C 6.7 °C 1009.7 hPa SSW 17.7 km/h 32.2 km/h 85 % 0.0 mm
15:07 9.1 °C 6.7 °C 1009.7 hPa SW 27.4 km/h 35.4 km/h 85 % 0.0 mm
15:12 9.1 °C 6.7 °C 1009.7 hPa West 12.9 km/h 35.4 km/h 85 % 0.0 mm
15:17 9.1 °C 6.9 °C 1009.4 hPa WSW 24.1 km/h 35.4 km/h 86 % 0.0 mm
15:22 9.1 °C 6.9 °C 1009.4 hPa SW 16.1 km/h 35.4 km/h 86 % 0.0 mm
15:27 9.1 °C 6.7 °C 1009.4 hPa SW 16.1 km/h 29.0 km/h 85 % 0.0 mm
15:32 9.2 °C 6.8 °C 1009.4 hPa WSW 19.3 km/h 29.0 km/h 85 % 0.0 mm
15:37 9.2 °C 6.8 °C 1009.4 hPa SW 14.5 km/h 35.4 km/h 85 % 0.0 mm
15:42 9.2 °C 6.8 °C 1009.4 hPa SSW 17.7 km/h 35.4 km/h 85 % 0.0 mm
15:47 9.2 °C 7.0 °C 1009.4 hPa WSW 27.4 km/h 37.0 km/h 86 % 0.0 mm
15:52 9.2 °C 7.0 °C 1009.4 hPa SW 20.9 km/h 37.0 km/h 86 % 0.0 mm
15:57 9.2 °C 7.0 °C 1009.4 hPa SW 24.1 km/h 48.3 km/h 86 % 0.0 mm
16:02 9.2 °C 7.0 °C 1009.4 hPa WSW 17.7 km/h 48.3 km/h 86 % 0.0 mm
16:07 9.2 °C 7.0 °C 1009.4 hPa SW 20.9 km/h 40.2 km/h 86 % 0.0 mm
16:12 9.1 °C 7.1 °C 1009.4 hPa West 16.1 km/h 40.2 km/h 87 % 0.0 mm
16:17 9.1 °C 7.1 °C 1009.4 hPa West 14.5 km/h 40.2 km/h 87 % 0.0 mm
16:22 8.9 °C 7.0 °C 1009.4 hPa SW 25.7 km/h 40.2 km/h 88 % 0.0 mm
16:32 8.7 °C 7.2 °C 1009.4 hPa SW 20.9 km/h 37.0 km/h 90 % 0.0 mm
16:42 8.4 °C 7.2 °C 1009.4 hPa WSW 17.7 km/h 41.8 km/h 92 % 0.0 mm
16:47 8.4 °C 7.3 °C 1009.4 hPa SW 24.1 km/h 35.4 km/h 93 % 0.0 mm
16:52 8.3 °C 7.2 °C 1009.4 hPa SW 16.1 km/h 35.4 km/h 93 % 0.0 mm
16:57 8.3 °C 7.2 °C 1009.4 hPa WSW 24.1 km/h 33.8 km/h 93 % 0.0 mm
17:02 8.3 °C 7.2 °C 1009.4 hPa SW 17.7 km/h 33.8 km/h 93 % 0.0 mm
17:07 8.3 °C 7.2 °C 1009.4 hPa WSW 30.6 km/h 35.4 km/h 93 % 0.0 mm
17:12 8.3 °C 7.2 °C 1009.4 hPa SW 17.7 km/h 35.4 km/h 93 % 0.0 mm
17:17 8.3 °C 7.4 °C 1009.4 hPa SW 8.0 km/h 38.6 km/h 94 % 0.0 mm
17:22 8.3 °C 7.4 °C 1009.4 hPa SW 16.1 km/h 38.6 km/h 94 % 0.0 mm
17:27 8.3 °C 7.4 °C 1009.4 hPa WSW 11.3 km/h 27.4 km/h 94 % 0.0 mm
17:32 8.3 °C 7.4 °C 1009.4 hPa SSW 12.9 km/h 27.4 km/h 94 % 0.0 mm
17:37 8.3 °C 7.4 °C 1009.4 hPa WSW 20.9 km/h 33.8 km/h 94 % 0.0 mm
17:42 8.3 °C 7.4 °C 1009.4 hPa SSW 12.9 km/h 33.8 km/h 94 % 0.0 mm
17:47 8.3 °C 7.4 °C 1009.4 hPa SW 12.9 km/h 30.6 km/h 94 % 0.0 mm
17:52 8.2 °C 7.3 °C 1009.4 hPa SW 16.1 km/h 30.6 km/h 94 % 0.0 mm
17:57 8.2 °C 7.3 °C 1009.4 hPa SW 17.7 km/h 32.2 km/h 94 % 0.0 mm
18:02 8.2 °C 7.3 °C 1009.4 hPa SW 22.5 km/h 32.2 km/h 94 % 0.0 mm
18:12 8.2 °C 7.4 °C 1009.7 hPa WSW 9.7 km/h 32.2 km/h 95 % 0.0 mm
18:17 8.2 °C 7.4 °C 1009.7 hPa SW 12.9 km/h 32.2 km/h 95 % 0.0 mm
18:22 8.2 °C 7.4 °C 1009.7 hPa SW 11.3 km/h 32.2 km/h 95 % 0.0 mm
18:32 8.2 °C 7.4 °C 1009.7 hPa SW 9.7 km/h 32.2 km/h 95 % 0.0 mm
18:37 8.2 °C 7.4 °C 1009.7 hPa WSW 20.9 km/h 32.2 km/h 95 % 0.0 mm
18:42 8.2 °C 7.4 °C 1010.0 hPa WSW 11.3 km/h 30.6 km/h 95 % 0.3 mm
18:52 8.2 °C 7.4 °C 1010.0 hPa WNW 12.9 km/h 25.7 km/h 95 % 0.3 mm
18:57 8.3 °C 7.5 °C 1010.0 hPa SW 9.7 km/h 29.0 km/h 95 % 0.3 mm
19:02 8.3 °C 7.5 °C 1010.0 hPa SW 17.7 km/h 29.0 km/h 95 % 0.3 mm
19:07 8.3 °C 7.5 °C 1010.0 hPa West 8.0 km/h 30.6 km/h 95 % 0.5 mm
19:12 8.3 °C 7.5 °C 1010.0 hPa SW 6.4 km/h 30.6 km/h 95 % 0.5 mm
19:17 8.4 °C 7.6 °C 1010.0 hPa WSW 16.1 km/h 32.2 km/h 95 % 0.5 mm
19:22 8.4 °C 7.6 °C 1010.4 hPa SW 9.7 km/h 32.2 km/h 95 % 0.5 mm
19:32 8.4 °C 7.6 °C 1010.4 hPa WSW 11.3 km/h 25.7 km/h 95 % 0.5 mm
19:42 8.5 °C 7.7 °C 1010.4 hPa WSW 8.0 km/h 27.4 km/h 95 % 0.3 mm
19:52 8.6 °C 7.8 °C 1010.4 hPa SW 11.3 km/h 22.5 km/h 95 % 0.3 mm
19:57 8.7 °C 7.9 °C 1010.4 hPa WSW 8.0 km/h 20.9 km/h 95 % 0.3 mm
20:02 8.7 °C 7.9 °C 1010.7 hPa SSW 6.4 km/h 20.9 km/h 95 % 0.3 mm
20:07 8.7 °C 7.9 °C 1010.7 hPa West 12.9 km/h 24.1 km/h 95 % 0.0 mm
20:12 8.8 °C 8.0 °C 1010.4 hPa WSW 9.7 km/h 24.1 km/h 95 % 0.0 mm
20:17 8.8 °C 8.0 °C 1010.7 hPa SW 17.7 km/h 25.7 km/h 95 % 0.0 mm
20:22 8.8 °C 8.0 °C 1010.7 hPa WSW 19.3 km/h 25.7 km/h 95 % 0.0 mm
20:27 8.8 °C 8.0 °C 1010.7 hPa West 6.4 km/h 25.7 km/h 95 % 0.3 mm
20:32 8.9 °C 8.1 °C 1011.1 hPa WNW 9.7 km/h 25.7 km/h 95 % 0.3 mm
20:37 8.9 °C 8.1 °C 1011.1 hPa WSW 22.5 km/h 25.7 km/h 95 % 1.5 mm
20:42 8.9 °C 8.1 °C 1011.1 hPa WNW 8.0 km/h 25.7 km/h 95 % 1.5 mm
20:52 9.0 °C 8.1 °C 1011.1 hPa West 8.0 km/h 24.1 km/h 94 % 2.3 mm
20:57 8.9 °C 8.0 °C 1011.1 hPa WNW 9.7 km/h 22.5 km/h 94 % 2.5 mm
21:02 8.9 °C 8.0 °C 1011.4 hPa West 6.4 km/h 22.5 km/h 94 % 2.5 mm
21:07 8.8 °C 7.6 °C 1011.4 hPa WNW 9.7 km/h 20.9 km/h 92 % 3.0 mm
21:12 8.7 °C 7.6 °C 1011.4 hPa NNE 3.2 km/h 20.9 km/h 93 % 3.0 mm
21:17 8.6 °C 7.1 °C 1011.4 hPa WNW 12.9 km/h 20.9 km/h 90 % 3.3 mm
21:22 8.6 °C 7.2 °C 1011.4 hPa WNW 11.3 km/h 20.9 km/h 91 % 3.3 mm
21:32 8.7 °C 7.2 °C 1011.7 hPa WNW 20.9 km/h 20.9 km/h 90 % 3.3 mm
21:37 8.7 °C 7.2 °C 1011.4 hPa West 9.7 km/h 25.7 km/h 90 % 1.5 mm
21:42 8.7 °C 7.2 °C 1011.7 hPa WNW 8.0 km/h 25.7 km/h 90 % 1.5 mm
21:47 8.6 °C 7.1 °C 1011.7 hPa WNW 6.4 km/h 24.1 km/h 90 % 1.3 mm
21:57 8.8 °C 6.8 °C 1011.7 hPa WNW 8.0 km/h 16.1 km/h 87 % 1.3 mm
22:07 8.7 °C 6.7 °C 1011.7 hPa WNW 6.4 km/h 16.1 km/h 87 % 0.5 mm
22:12 8.5 °C 6.6 °C 1011.7 hPa West 1.6 km/h 16.1 km/h 88 % 0.5 mm
22:22 8.4 °C 6.9 °C 1011.7 hPa WNW 3.2 km/h 12.9 km/h 90 % 0.5 mm
22:27 8.3 °C 6.8 °C 1012.1 hPa WSW 3.2 km/h 8.0 km/h 90 % 0.3 mm
22:32 8.3 °C 6.8 °C 1012.1 hPa West 1.6 km/h 8.0 km/h 90 % 0.3 mm
22:37 8.4 °C 6.7 °C 1012.1 hPa WNW 9.7 km/h 16.1 km/h 89 % 0.0 mm
22:42 8.4 °C 6.5 °C 1012.1 hPa West 6.4 km/h 16.1 km/h 88 % 0.0 mm
22:47 8.4 °C 6.5 °C 1012.1 hPa WNW 6.4 km/h 16.1 km/h 88 % 0.0 mm
22:52 8.3 °C 6.3 °C 1012.1 hPa WNW 3.2 km/h 16.1 km/h 87 % 0.0 mm
22:57 8.3 °C 6.3 °C 1012.4 hPa WSW 9.7 km/h 12.9 km/h 87 % 0.0 mm
23:02 8.3 °C 6.1 °C 1012.1 hPa West 9.7 km/h 12.9 km/h 86 % 0.0 mm
23:07 8.3 °C 5.8 °C 1012.4 hPa WNW 6.4 km/h 17.7 km/h 84 % 0.0 mm
23:12 8.2 °C 5.7 °C 1012.4 hPa West 8.0 km/h 17.7 km/h 84 % 0.0 mm
23:17 8.1 °C 5.6 °C 1012.4 hPa WNW 8.0 km/h 17.7 km/h 84 % 0.0 mm
23:22 8.1 °C 5.7 °C 1012.4 hPa West 1.6 km/h 17.7 km/h 85 % 0.0 mm
23:27 8.0 °C 5.6 °C 1012.4 hPa West 9.7 km/h 12.9 km/h 85 % 0.0 mm
23:32 7.9 °C 4.7 °C 1012.4 hPa West 17.7 km/h 17.7 km/h 80 % 0.0 mm
23:42 7.8 °C 4.6 °C 1012.8 hPa NW 11.3 km/h 29.0 km/h 80 % 0.0 mm
23:47 7.6 °C 4.4 °C 1012.8 hPa West 9.7 km/h 29.0 km/h 80 % 0.0 mm
23:52 7.5 °C 4.5 °C 1012.8 hPa WNW 6.4 km/h 29.0 km/h 81 % 0.0 mm
23:57 7.4 °C 4.4 °C 1012.8 hPa WSW 6.4 km/h 17.7 km/h 81 % 0.0 mm
Meteo18
Compliments of Weather Underground - 4 mb

Script developed by  Jim McMurry - jmcmurry@mwt.net Adapted for the template by  Wim van der Kuil - Leuven-Template.eu

You find our weather info also at:

European Weather Network

Weather Underground

Equipment we use:

Weather-station
Davis Vue

Weather-program
Meteohub

Weather-server
Raspberry PI 2 B+

Provider
1 and 1

Davis Vue

Meteohub

Raspberry PI 2 B+

1 and 1